Theta_e
337 336 335 335 336 335 337 338 337 336 336 335 334 334 333 333 332 331 331 333 334 334 333 333 335 336 336 335 333 332 330 328 329 329 331 331 333 334 333 334 336 337 337
337 336 336 336 337 334 337 339 337 337 335 335 334 333 332 332 332 331 330 330 333 333 334 333 335 334 335 334 330 327 326 326 325 327 327 328 329 330 330 330 332 334 334
337 336 336 336 335 333 338 340 338 336 329 333 331 331 330 329 329 328 328 329 329 331 333 332 334 333 332 330 326 323 318 316 320 323 325 327 327 328 328 328 328 330 331
337 337 335 334 332 333 338 339 338 336 335 335 332 331 329 328 326 325 324 325 326 329 330 332 333 332 329 327 325 321 315 316 317 319 323 325 325 326 326 326 326 326 326
337 336 335 332 331 335 337 338 338 335 335 334 333 332 327 325 322 319 321 321 322 325 328 330 331 329 325 321 316 314 315 317 319 321 324 325 325 325 325 325 324 324 324
337 336 332 332 335 336 336 337 338 335 331 332 331 328 325 325 323 321 317 319 320 322 324 326 327 323 317 314 314 315 318 320 322 323 324 325 325 325 325 324 324 323 323
337 336 333 334 334 335 335 337 336 336 333 331 328 327 326 325 324 322 317 316 317 319 320 321 321 318 313 309 307 311 315 318 321 323 324 324 324 324 324 324 323 323 323
337 336 334 334 333 333 334 335 336 336 335 331 329 328 327 325 323 321 320 317 316 317 317 317 317 310 305 302 306 311 315 317 319 320 322 325 327 328 327 327 325 324 323
338 337 335 334 333 333 333 334 334 334 334 333 330 328 326 325 323 322 321 320 317 315 313 309 305 303 302 301 302 307 312 314 317 318 320 320 320 321 323 323 323 324 325
339 338 336 335 334 334 334 333 333 333 333 333 331 329 327 325 323 322 321 320 318 315 309 304 303 302 302 302 302 305 310 314 317 318 319 319 319 319 319 319 319 320 321
339 339 338 337 336 336 334 334 334 333 332 332 333 329 327 325 323 322 321 320 319 316 313 309 308 308 308 309 310 311 314 318 318 319 320 320 322 322 322 321 320 320 319
338 339 339 338 337 337 335 335 335 334 333 332 332 331 328 327 325 323 322 321 320 318 315 313 313 312 312 310 310 313 316 316 316 315 316 318 319 320 319 319 319 319 320
338 339 337 338 336 336 336 335 335 336 333 332 332 332 330 328 327 324 322 322 321 318 317 315 314 314 312 311 310 311 313 313 312 311 313 314 316 316 316 315 315 315 314
336 334 334 335 334 333 336 336 336 337 334 332 332 332 331 330 328 326 324 323 322 319 317 316 316 314 312 310 310 310 310 310 308 306 307 309 310 311 311 311 312 311 311
331 332 331 332 332 333 333 334 334 332 335 333 332 332 332 331 329 327 325 324 322 320 319 318 317 314 311 310 309 309 306 305 302 301 301 303 304 305 307 308 309 309 308
329 330 330 330 330 331 332 332 333 331 333 334 333 332 332 331 330 329 326 325 323 321 321 319 317 313 310 308 305 303 299 296 294 293 293 293 296 300 303 305 306 306 305
325 324 324 324 325 326 329 330 331 331 331 333 333 332 332 332 331 330 327 324 322 321 321 319 316 312 308 304 300 298 295 293 292 291 290 290 290 292 300 300 300 301 301
313 313 313 313 312 312 313 318 328 330 330 334 335 333 332 332 332 330 328 325 322 321 320 318 314 308 303 299 296 292 291 291 290 289 289 289 288 288 289 292 294 296 298
311 310 310 310 310 310 311 312 316 326 329 331 332 333 333 333 331 330 327 325 321 320 319 317 312 309 300 294 291 289 289 289 289 288 288 287 287 286 286 286 287 290 294
310 309 309 309 309 311 311 314 321 322 325 329 330 332 332 332 331 329 326 323 320 319 317 314 311 302 299 293 288 287 287 286 287 287 286 286 286 286 286 286 286 286 286
307 307 308 308 310 312 312 316 319 321 322 324 329 330 330 330 330 328 326 323 318 319 316 313 308 302 291 291 288 285 284 285 285 285 285 285 285 285 285 285 285 285 285
306 306 307 308 310 312 312 316 317 319 320 324 323 324 324 328 327 326 322 321 317 317 314 310 307 294 290 292 291 291 291 288 284 284 284 284 284 284 285 284 284 284 284
304 306 306 307 309 312 313 315 316 316 317 318 318 322 323 323 324 322 320 318 317 316 313 309 306 301 292 294 294 298 297 299 292 284 284 284 284 284 284 283 283 283 284
304 305 305 307 309 311 312 313 315 315 313 315 318 320 321 320 320 319 317 317 315 313 310 308 305 303 301 298 296 295 294 295 293 289 283 283 283 283 283 283 283 283 283
302 303 304 306 308 310 311 312 313 313 314 317 316 315 314 315 314 316 316 314 309 304 305 306 304 302 301 301 297 290 289 288 287 287 287 284 283 283 283 283 283 283 283
302 303 304 305 308 309 311 311 312 312 311 314 311 310 310 310 310 311 312 308 301 301 304 304 303 301 301 300 297 291 289 288 286 286 285 284 284 282 283 282 282 282 282
Wind_Speed
18 17 15 13 13 14 15 17 15 16 19 18 17 17 18 19 19 19 18 18 19 18 19 18 20 22 24 24 23 23 24 25 26 26 25 23 23 21 22 24 25 26 27
20 17 16 15 14 15 15 16 17 16 18 18 17 17 18 19 18 18 18 18 18 18 19 19 21 21 22 23 22 22 21 21 21 24 24 25 24 22 23 22 22 24 24
20 18 17 16 16 16 16 16 15 15 17 16 17 17 18 19 17 17 18 17 18 18 17 19 20 20 22 21 21 21 22 22 22 23 25 23 24 23 23 24 24 24 24
20 19 17 15 15 16 16 16 15 15 17 16 17 17 18 18 17 17 18 17 18 18 18 18 20 21 20 19 19 20 22 23 24 24 23 23 23 23 23 24 25 25 25
20 19 17 17 17 17 15 16 14 14 16 17 17 17 18 17 17 17 17 18 18 18 19 18 19 19 18 18 18 21 23 24 25 27 25 24 23 24 24 25 26 26 27
21 19 18 17 16 16 16 15 14 13 13 15 16 16 17 17 17 17 18 19 19 18 19 18 19 18 18 20 21 22 23 24 28 29 30 27 25 24 25 25 26 28 28
20 19 19 18 16 15 15 15 15 12 12 13 15 16 16 17 17 17 18 19 18 19 19 19 20 20 20 20 22 23 24 25 29 29 29 25 24 24 24 25 26 26 27
20 19 18 17 15 14 14 14 14 14 12 12 14 15 16 17 19 18 18 19 19 20 20 20 21 20 20 21 23 25 25 26 29 30 29 25 26 26 26 26 26 26 27
19 20 19 17 15 14 13 13 13 12 12 11 13 14 15 17 18 19 19 19 20 19 19 19 19 20 21 22 23 24 25 26 30 30 27 26 24 22 23 25 26 27 28
20 20 20 18 16 15 14 13 13 13 13 13 13 14 15 16 16 17 17 17 18 18 18 18 19 20 21 23 23 24 25 27 31 30 25 24 24 25 25 24 24 24 25
21 21 20 19 17 16 14 13 13 14 13 13 14 14 15 15 15 16 15 16 16 16 18 19 19 20 22 24 24 24 26 30 32 29 29 25 26 26 26 26 27 26 26
22 22 21 21 19 17 16 15 14 14 14 12 13 16 16 14 13 14 14 13 14 15 17 19 19 20 21 23 24 24 27 29 32 30 28 26 25 26 27 28 28 28 29
24 24 22 22 20 18 18 17 16 17 16 15 16 16 18 16 13 14 14 13 13 13 16 17 19 20 21 22 23 24 24 26 30 30 30 27 27 28 28 28 28 28 28
25 24 23 21 20 19 19 19 18 18 20 20 19 18 20 19 17 17 15 13 13 14 16 16 18 20 21 21 21 22 23 24 26 29 30 29 27 27 26 26 26 27 27
25 25 23 23 22 21 21 21 20 19 21 22 21 21 22 22 21 20 17 15 15 16 16 17 18 20 22 21 21 21 23 24 24 26 28 27 27 27 26 26 26 26 26
26 26 24 23 24 24 23 23 23 22 22 21 22 23 22 21 23 22 19 18 17 18 17 17 19 21 21 22 23 23 25 25 24 24 24 25 26 27 27 27 26 24 24
27 25 25 24 23 24 24 24 25 25 21 24 24 22 23 23 25 25 22 22 22 21 19 19 20 21 24 25 26 25 25 25 25 24 24 24 23 24 26 25 25 25 25
27 27 25 24 24 23 24 25 27 28 25 23 26 25 25 25 26 28 25 24 23 22 21 21 22 25 26 27 28 26 26 24 24 23 23 22 21 21 22 23 24 25 25
29 28 27 25 24 22 22 23 22 24 26 25 25 25 26 26 26 28 27 27 26 25 23 23 24 26 30 29 28 26 24 23 23 22 22 22 22 23 22 21 21 24 24
30 29 27 25 24 22 21 20 21 23 24 24 26 26 27 26 27 30 28 28 27 27 25 25 28 31 32 32 29 27 23 22 21 21 21 21 21 21 21 21 22 23 21
31 31 30 28 26 24 23 24 23 27 26 25 26 26 27 29 30 31 31 28 29 27 28 29 33 36 33 34 31 23 20 19 19 19 18 19 18 19 19 19 20 19 21
38 36 34 32 30 29 28 29 24 28 26 26 25 27 30 30 30 31 32 32 31 27 29 34 40 36 29 31 12 12 6 4 12 14 15 15 15 15 16 17 18 19 20
39 41 40 37 34 31 30 29 25 26 23 24 26 27 27 27 27 30 29 30 28 30 36 39 42 39 33 26 25 6 4 3 9 7 10 12 12 12 13 13 15 17 18
44 42 41 39 36 34 34 33 35 32 24 28 31 29 29 28 27 27 28 27 30 33 37 41 43 38 38 29 26 10 7 13 4 4 5 8 9 9 9 9 10 13 15
33 40 41 39 37 37 36 36 37 33 31 28 30 30 29 28 27 27 27 29 30 32 36 40 40 35 32 26 23 16 12 9 10 5 4 7 7 7 7 5 5 7 11
28 34 37 40 37 38 38 38 38 37 33 30 33 32 31 29 28 28 29 29 30 31 35 37 36 29 28 22 21 18 18 7 8 5 4 4 6 7 7 5 3 3 7
Wind_Direction
169 168 167 159 144 136 131 125 112 106 98 95 89 85 85 87 84 84 84 84 82 85 86 83 80 84 86 80 78 75 72 73 74 75 69 65 62 59 65 66 60 54 57
160 160 167 160 151 143 138 127 119 110 102 98 93 90 89 87 83 84 84 84 87 86 86 85 87 87 85 80 77 73 71 73 78 81 78 68 64 62 59 64 61 55 55
157 158 160 159 154 150 140 131 119 110 103 100 97 94 87 84 84 82 84 85 85 87 87 85 89 90 84 80 77 74 72 74 77 79 78 69 64 62 61 59 58 58 54
159 161 161 158 154 151 144 136 125 118 111 107 97 92 89 88 87 86 83 83 85 89 90 88 88 87 84 81 77 74 75 78 78 78 70 71 67 62 61 60 58 57 56
163 164 164 161 157 152 147 141 134 123 116 110 105 99 94 89 86 83 87 86 86 89 91 92 90 87 86 79 76 78 79 79 78 75 71 68 66 62 61 59 57 56 57
167 166 164 160 158 157 155 149 144 128 119 116 110 100 92 88 84 85 85 83 85 90 89 90 91 87 82 83 84 85 84 82 80 75 72 68 66 64 62 60 58 55 55
168 168 167 166 166 165 158 156 151 141 130 125 114 109 101 94 89 87 86 89 89 90 89 90 88 87 87 87 89 88 86 85 83 79 75 69 66 64 63 61 59 57 55
172 172 172 171 171 166 163 162 157 154 147 135 126 119 112 100 89 85 86 89 91 91 90 90 89 90 90 89 89 88 87 85 82 79 74 66 68 65 65 62 61 58 57
180 177 178 179 179 175 172 168 164 163 158 147 138 131 117 102 93 92 91 92 92 93 92 93 95 93 91 89 89 90 90 86 82 77 69 67 65 63 59 57 58 57 58
185 185 183 183 185 184 180 177 172 172 170 163 152 143 128 114 109 105 100 97 94 94 96 96 96 97 95 92 92 93 94 90 82 75 71 71 69 65 64 60 58 57 56
186 189 189 187 186 189 186 183 180 179 177 171 164 156 144 133 128 120 111 109 104 102 99 97 97 98 99 96 96 98 96 92 86 76 72 70 69 66 65 63 61 60 58
185 188 193 191 189 190 194 193 195 186 183 181 181 171 162 155 150 137 128 119 109 107 104 104 103 102 101 99 99 98 97 95 90 83 72 68 65 66 63 62 61 59 59
187 187 190 195 197 203 202 202 205 197 191 198 196 186 178 171 169 159 147 138 129 122 112 110 108 104 103 103 101 99 100 97 94 91 80 73 68 67 64 61 62 60 56
191 193 192 205 201 203 207 208 207 213 200 201 201 194 190 184 181 173 167 156 148 139 126 121 115 112 109 106 103 102 99 97 97 93 86 79 71 68 67 64 62 60 58
199 198 198 200 213 209 209 213 214 221 220 209 207 204 196 195 188 180 175 170 159 148 138 128 124 121 115 112 109 107 103 98 94 94 91 82 72 67 66 65 64 61 57
205 206 208 208 210 219 216 218 219 219 216 218 216 211 202 207 197 188 182 175 166 155 144 141 138 132 126 121 114 110 106 100 96 91 86 82 73 66 64 64 64 62 57
213 214 215 216 216 219 221 221 224 223 220 216 214 209 212 210 206 195 191 179 169 158 148 149 146 139 134 125 117 113 109 103 98 92 87 81 77 76 71 69 66 62 58
219 216 215 217 220 221 223 222 221 222 219 218 213 215 217 216 210 195 190 182 168 162 157 156 153 143 135 126 120 115 109 105 99 93 87 84 81 80 79 71 67 63 59
221 220 218 217 220 222 221 218 215 215 214 214 215 219 218 217 211 199 190 181 175 167 161 162 156 153 138 126 120 114 109 106 102 98 93 89 86 83 80 75 71 67 60
221 221 221 219 218 218 218 207 208 212 211 209 212 216 214 210 203 198 191 177 179 168 164 165 163 151 145 134 120 110 106 106 103 98 95 93 90 86 81 74 67 62 60
221 218 216 214 212 209 204 196 201 205 202 204 202 202 205 203 198 193 191 188 181 175 173 173 165 156 142 141 120 102 96 100 101 100 99 97 95 87 79 71 66 64 60
219 216 214 214 212 210 211 203 199 199 197 203 208 212 198 196 194 197 193 186 183 179 178 176 169 154 153 153 147 126 154 122 90 101 102 101 99 94 83 75 70 63 57
217 218 216 214 212 210 207 201 199 199 194 197 194 192 190 195 199 196 192 186 189 192 183 181 178 171 165 178 172 155 151 164 147 121 112 115 111 103 98 87 73 62 54
222 220 219 216 213 210 208 204 203 199 190 202 200 192 190 189 194 198 199 202 195 189 188 186 184 183 177 178 180 206 183 143 160 158 170 135 127 123 119 101 78 59 48
220 217 216 214 213 211 207 208 207 206 205 200 197 191 190 190 191 193 195 192 191 191 192 188 186 187 191 182 182 166 154 146 138 143 159 172 170 152 145 124 95 62 41
223 218 213 210 206 210 208 208 209 209 203 192 193 192 190 188 188 190 190 192 192 189 188 187 190 194 194 200 191 182 168 165 171 141 118 153 172 183 185 181 167 45 22